User: anonymous   Login
Location: Lafig�re
(44.4503°N, 4.0357°E)
Time: 01:26:52
(UTC+00:00)
Language:

ARGOS - Orbit

View from above orbital plane
View from above orbital plane
View from above satellite
View from above satellite

Ground track
Ground track

The orbit data is extracted from the following two-line orbital elements,

1 25634U 99008A   21136.54417552 -.00000007  00000-0  16137-4 0  9992
2 25634  98.4213 165.7967 0010866  37.7849 322.4089 14.19394598150736
Epoch (UTC): 16 May 2021 13:03:36
Eccentricity: 0.0010866
inclination: 98.4213°
perigee height: 819 km
apogee height: 835 km
right ascension of ascending node: 165.7967°
argument of perigee: 37.7849°
revolutions per day: 14.19394598
mean anomaly at epoch: 322.4089°
orbit number at epoch: 15073

The dashed part of the orbit path shows where the satellite is in the earth's shadow,  

DLR